Location: ??????
(38.0677°N, 22.9870°E)
Time: 15:55:58
(UTC+00:00)

CZ-2C R/B - Pass Details

Date: 07 August 2024
Orbit: 666 x 777 km, 98.4° (Epoch: 09 September)

Event Time Altitude Azimuth Distance (km) Brightness Sun altitude
Rises 02:56:52 0° 1° (N) 3,256 6.2 -7.9°
Reaches altitude 10° 02:59:25 10° 350° (N) 2,331 5.3 -7.4°
Maximum altitude 03:03:49 29° 292° (WNW) 1,392 3.5 -6.7°
Drops below altitude 10° 03:08:12 10° 233° (SW) 2,319 4.3 -5.9°
Enters shadow 03:09:19 - 228° (SW) 2,707 4.7 -5.7°
